Flag for United Kingdom Weather past 2 weeks in Glasgow, Scotland, United Kingdom

Now
57 °F

Passing clouds.


Feels Like: 55 °F
Forecast: 51 / 62 °F
Wind: 9 mph from Southwest

Location: Glasgow Airport

Current Time: Jul 30, 2014 at 4:26:18 AM

Latest Report: Jul 30, 2014 at 3:50 AM


Visibility: N/A

Pressure: 29.89 "Hg

Humidity: 94%

Dew point: 55 °F

Location of GlasgowLocation

Historic Weather in Glasgow — Graph

°F

Glasgow temperature yesterday

Maximum temperature yesterday: 66 °F (at 1:50 PM)
Minimum temperature yesterday: 57 °F (at 12:20 AM)
Average temperature yesterday: 60 °F

Past Weeks' High & Low Weather Summary

 TemperatureHumidityPressure
High82 °F (Jul 25, 3:50 PM)100% (Jul 17, 4:50 AM)30.30 "Hg (Jul 17, 4:50 AM)
Low50 °F (Jul 17, 4:50 AM)35% (Jul 25, 3:50 PM)29.71 "Hg (Jul 19, 10:20 PM)
Average63 °F80%30.03 "Hg
* Reported Jul 15 3:20 AM — Jul 30 3:20 AM, Glasgow, Weather by CustomWeather, © 2014

Note: Actual official high and low records may vary slightly from our data, if they occured in-between our weather recording intervals... More about our weather records

Advertising

Glasgow weather history for previous 24 hours

 ConditionsComfort  
Time TempWeatherWind HumidityBarometerVisibility
3:20 AM
Jul 30
57 °FMostly cloudy.12 mph94%29.89 "HgN/A
2:50 AM57 °FLight rain. Mostly cloudy.13 mph94%29.89 "Hg4 mi
2:20 AM57 °FPassing clouds.9 mph94%29.89 "HgN/A
1:50 AM57 °FMostly cloudy.8 mph88%29.92 "HgN/A
1:20 AM57 °FOvercast.9 mph88%29.92 "HgN/A
12:50 AM57 °FPassing clouds.8 mph88%29.95 "HgN/A
12:20 AM57 °FOvercast.6 mph88%29.95 "HgN/A
11:50 PM
Jul 29
57 °FPassing clouds.13 mph82%29.95 "HgN/A
11:20 PM57 °FPassing clouds.13 mph88%29.98 "HgN/A
10:50 PM57 °FPassing clouds.13 mph88%29.98 "HgN/A
10:20 PM59 °FPartly sunny.12 mph77%29.95 "HgN/A
9:50 PM57 °FBroken clouds.10 mph82%29.95 "HgN/A
9:20 PM57 °FScattered showers. Broken clouds.10 mph82%29.95 "HgN/A
8:50 PM59 °FScattered showers. Broken clouds.15 mph82%29.95 "HgN/A
8:20 PM59 °FPartly sunny.8 mph82%29.98 "HgN/A
7:50 PM59 °FBroken clouds.6 mph82%29.98 "HgN/A
7:20 PM59 °FScattered showers. Broken clouds.10 mph82%29.98 "HgN/A
6:50 PM59 °FScattered showers. Broken clouds.9 mph82%29.98 "HgN/A
6:20 PM61 °FBroken clouds.17 mph77%29.98 "HgN/A
5:50 PM63 °FBroken clouds.12 mph73%29.98 "HgN/A
5:20 PM63 °FBroken clouds.10 mph73%29.98 "HgN/A
4:50 PM63 °FBroken clouds.12 mph73%29.98 "HgN/A
4:20 PM63 °FScattered showers. Broken clouds.14 mph73%29.98 "HgN/A
3:50 PM63 °FScattered showers. Broken clouds.14 mph73%29.98 "HgN/A
3:20 PM63 °FScattered showers. Broken clouds.16 mph73%29.98 "HgN/A
2:50 PM63 °FScattered showers. Broken clouds.15 mph73%29.98 "HgN/A
2:20 PM63 °FScattered showers. Broken clouds.13 mph73%29.98 "HgN/A
1:50 PM66 °FScattered showers. Broken clouds.14 mph68%29.98 "HgN/A
1:20 PM64 °FBroken clouds.15 mph73%29.98 "HgN/A
12:50 PM64 °FScattered showers. Broken clouds.13 mph73%29.98 "HgN/A
12:20 PM63 °FBroken clouds.9 mph77%29.98 "HgN/A
11:50 AM63 °FPartly sunny.10 mph77%29.98 "HgN/A
11:20 AM63 °FMostly cloudy.14 mph77%29.98 "HgN/A
10:50 AM61 °FScattered showers. Broken clouds.14 mph77%29.98 "HgN/A
10:20 AM63 °FScattered showers. Broken clouds.13 mph77%29.98 "HgN/A
9:50 AM63 °FBroken clouds.14 mph77%29.98 "HgN/A
9:20 AM63 °FScattered showers. Partly sunny.14 mph77%29.98 "HgN/A
8:50 AM61 °FPartly sunny.10 mph83%29.98 "HgN/A
8:20 AM61 °FBroken clouds.13 mph88%29.98 "HgN/A
7:50 AM59 °FCloudy.9 mph100%29.98 "Hg5 mi
7:20 AM59 °FMostly cloudy.10 mph94%29.98 "Hg5 mi
6:50 AM59 °FMostly cloudy.10 mph94%29.98 "HgN/A
6:20 AM59 °FMostly cloudy.10 mph94%29.98 "HgN/A
5:50 AM57 °FPassing clouds.9 mph94%29.98 "HgN/A
5:20 AM57 °FPassing clouds.3 mph94%30.01 "HgN/A
4:50 AM57 °FLight rain. Mostly cloudy.3 mph94%30.01 "Hg5 mi
4:20 AM59 °FLight rain. Passing clouds.6 mph88%30.01 "Hg5 mi
Weather by CustomWeather, © 2014

See weather overviewHow to use our weather pages